OBJECT Q, 61908

Orbit data source: Space-Track

You're viewing an Uncataloged Satellite

Recently launched and/or uncataloged satellites may have evolving metadata. Metadata may include but not limited to: Owner, Maufacturer, Bus, Motor, and Mission.

OBJECT Q, 61908 is a Chinese satellite in SSO that was launched on Mon, 11 Nov 2024 UTC via a LIJIAN-1 launch vehicle from the Jiuquan Satellite Launch Center, China (JSC). Unknown objects in Earth's orbit typically refer to objects detected orbiting the Earth but have not yet been identified or cataloged. These objects could be anything from previously untracked satellites, spent rocket stages, debris from satellite collisions, or even natural meteoroids temporarily captured by Earth's gravity.

Loading next visibility...
Identifier
61908, 2024-205Q
Orbit
SSO
Country
Flag of CNCN / PRC
Related business
None
Manufacturer
Unknown
Mission
Operational Defense Technology
Bus & Motor
Unknown
Mass
Unknown
Launch date (UTC)
2024-11-11 (1 year ago)
Launch vehicle
LIJIAN-1
Launch site
Jiuquan Satellite Launch Center, China (JSC)
Object type
Unknown
Shape & HBR
Box + 2 Pan, 2.5 m
Radar Cross Section
4.795 m², Medium (>0.1 m² and < 1m²)

Expand to show TLE details & history
Last TLE update: 2 days ago

TLE from 2 days ago
0 OBJECT Q
1 61908U 24205Q   25311.81053963  .00012692  00000-0  63267-3 0  9991
2 61908  97.4394  23.7243 0014618 105.7459 254.5388 15.17587217 54765
Epoch: 2025-11-07T19:27Z
TLE epoch observation values (Epoch: 2025-11-07T19:27:10.624Z)
Latitude
-0.00001°
Longitude
44.68087°
Altitude
518.921 km
Speed
7.602 km/s
True Right ascension
01h 34m 53s
True Declination
0° 00' 00"
Sunlit
Object was in full shadow at epoch
Visualization orbit readout
Latitude
Unknown
Longitude
Unknown
Altitude
Unknown
Speed
Unknown
Apparent Right ascension
Unknown
Apparent Declination
Unknown
Sunlit
N/A
Visualization observer readout
Local Sidereal Time
11:45:48
Azimuth
Unknown
Elevation
Unknown
Doppler factor
Unknown
Orbital elements
Apogee altitude
520.175 km
Perigee altitude
500.036 km
Semi-major axis
6,888.243 km
Eccentricity
0.00146
Inclination
97.4394°
RAAN
23.7243°
Arg. of periapsis
105.7459°
True anomaly
254.37743°
Mean anomaly
254.5388°
Eccentric anomaly
254.45811°
Mean motion
3.79647 °/min
Orbital period
94.82 mins
BSTAR
0.00063267
Loading maneuver chart data...
Computing Atmospheric mass density...
Loading historical data...
Loading historical data...
Loading historical data...
Loading historical data...
Loading historical data...
Loading historical data...
Loading historical data...

Documentation

Showing up to 5 results
|